#timestamp,LO_Frequency,Hit,StdDev 
1512626415.1,286046999.3,N
1512626416.0,286046999.3,N
1512626435.8,286047004.3,N
1512626455.6,286047004.7,N
1512626475.5,286047005.8,N
1512626495.3,286047004.8,N
1512626515.1,286047013.9,Y
1512626535.9,286047012.7,P
1512626555.7,286047014.0,N
1512626575.5,286047010.6,N
1512626595.4,286047004.8,N
1512626615.2,286047004.5,N
1512626635.0,286047011.4,N
1512626635.9,286047011.4,N
1512626655.8,286047016.1,Y
1512626675.6,286047010.2,P
1512626695.4,286047013.6,P
1512626715.2,286047011.4,P
1512626735.1,286047010.2,Y
1512626736.0,286047010.2,P
1512626755.8,286047000.4,N
1512626775.7,286046999.2,N
1512626795.5,286046993.3,N
1512626815.3,286046990.1,N
1512626835.1,286046992.7,N
1512626855.9,286046991.7,N
1512626875.7,286046991.0,N
1512626895.5,286046989.8,N
1512626915.4,286046984.4,N
1512626935.2,286046983.5,N
1512626955.0,286046979.1,N
1512626955.9,286046979.1,N
1512626975.8,286046982.0,N
1512626995.6,286046980.7,N
1512627015.4,286046983.5,N
1512627035.3,286046977.8,N
1512627055.1,286046981.2,N
1512627056.0,286046981.2,N
1512627075.8,286046980.8,N
1512627095.7,286046981.7,N
1512627115.5,286046980.1,N
1512627135.3,286046981.6,N
1512627155.1,286046983.0,N
1512627175.9,286046983.0,N
1512627195.7,286046982.0,N
1512627215.5,286046980.8,N
1512627235.4,286046981.3,N
1512627255.2,286046982.0,N
1512627275.0,286046982.6,N
1512627275.9,286046982.6,N
1512627295.8,286046981.4,Y
1512627315.6,286046995.2,P
1512627335.4,286046997.2,N
1512627355.3,286047000.5,N
1512627375.1,286047000.6,N
1512627376.0,286047000.6,N
1512627395.8,286046999.4,N
1512627415.7,286046998.7,N
1512627435.5,286047004.3,N
1512627455.3,286047005.4,N
1512627475.2,286047003.7,N
1512627495.9,286047004.3,N
1512627515.7,286047002.7,N
1512627535.5,286046999.7,N
1512627555.4,286047004.1,N
1512627575.2,286047001.9,N
1512627595.0,286046999.8,N
1512627595.9,286046999.8,N
1512627615.8,286047002.8,N
1512627635.6,286047002.2,N
1512627655.4,286047001.9,N
1512627675.3,286047007.5,N
1512627695.1,286047008.5,N
1512627696.0,286047008.5,N
1512627715.8,286047009.1,N
1512627735.7,286047008.3,N
1512627755.5,286047010.6,N
1512627775.3,286047014.8,N
1512627795.1,286047015.8,N
1512627815.9,286047019.9,Y
1512627835.7,286047017.0,P
1512627855.6,286047018.3,N
1512627875.4,286047022.3,P
1512627895.2,286047022.6,Y
1512627915.1,286047005.7,P
1512627916.0,286047005.7,N
1512627935.8,286047005.5,N
1512627955.6,286047000.0,N
1512627975.4,286047001.6,N
1512627995.3,286047001.3,N
1512628015.1,286047004.3,N
1512628035.8,286047005.2,N
1512628055.7,286047004.5,N
1512628075.5,286047006.6,N
1512628095.3,286047008.6,N
1512628115.2,286047009.3,N
1512628135.9,286047009.5,N
1512628155.7,286047009.5,N
1512628175.6,286047011.3,Y
1512628195.4,286047006.7,P
1512628215.2,286047008.1,P
1512628235.1,286047009.9,P
1512628236.0,286047009.9,Y
1512628255.8,286047001.0,P
1512628275.6,286046999.5,N
1512628295.5,286046996.9,N
1512628315.3,286046999.1,N
1512628335.1,286046994.9,N
1512628355.9,286046996.1,N
1512628375.7,286046994.9,N
1512628395.5,286046995.5,N
1512628415.4,286046995.8,N
1512628435.2,286046998.0,N
1512628455.0,286046998.4,N
1512628455.9,286046998.4,N
1512628475.7,286046998.3,N
1512628495.6,286046996.9,N
1512628515.4,286046997.6,N
1512628535.2,286046997.5,N
1512628555.1,286046999.8,N
1512628556.0,286046999.8,N
1512628575.8,286047003.3,N
1512628595.6,286046999.8,N
1512628615.5,286046995.6,N
1512628635.3,286046989.1,Y
1512628655.1,286046989.4,P
1512628675.9,286046987.7,N
1512628695.7,286046985.1,P
1512628715.5,286046981.4,Y
1512628735.4,286046987.8,P
1512628755.2,286046985.5,P
1512628775.0,286046982.1,P
1512628775.9,286046982.1,Y
1512628795.8,286046999.2,P
1512628815.6,286046998.9,N
1512628835.4,286046999.4,N
1512628855.3,286046997.4,N
1512628875.1,286046994.6,N
1512628876.0,286046994.6,N
1512628895.8,286046992.6,N
1512628915.7,286046991.7,N
1512628935.5,286046994.8,N
1512628955.3,286046993.7,N
1512628975.2,286046994.8,N
1512628995.9,286046993.1,N
1512629015.7,286046990.7,N
1512629035.6,286046988.9,Y
1512629055.4,286046993.5,P
1512629075.2,286046994.5,P
1512629095.1,286046994.5,P
1512629096.0,286046994.5,Y
1512629115.8,286046998.3,P
1512629135.6,286046998.7,N
1512629155.5,286047000.2,N
1512629175.3,286046999.2,N
1512629195.1,286046995.9,N
1512629215.9,286046994.8,N
1512629235.7,286046991.3,Y
1512629255.5,286046993.6,P
1512629275.4,286046992.0,P
1512629295.2,286046991.9,P
1512629315.0,286046990.4,Y
1512629315.9,286046990.4,P
1512629335.8,286046997.9,N
1512629355.6,286046997.5,N
1512629375.4,286046999.5,N
1512629395.3,286046997.1,N
1512629415.1,286046999.5,N
1512629416.0,286046999.5,N
1512629435.8,286046999.2,N
1512629455.6,286047000.4,N
1512629475.5,286047000.1,N
1512629495.3,286047001.1,N
1512629515.1,286046998.6,N
1512629535.9,286046998.9,N
1512629555.7,286046997.3,N
1512629575.5,286046995.5,N
1512629595.4,286046998.2,N
1512629615.2,286047002.8,N
1512629635.0,286047000.5,N
1512629635.9,286047000.5,N
1512629655.8,286047001.3,N
1512629675.6,286047002.6,N
1512629695.4,286047000.8,N
1512629715.3,286047001.9,N
1512629735.1,286047000.2,N
1512629736.0,286047000.2,N
1512629755.8,286047003.1,N
1512629775.6,286047007.6,N
1512629795.5,286047004.6,N
1512629815.3,286047006.8,N
1512629835.1,286047008.7,N
1512629855.9,286047008.6,N
1512629875.7,286047011.9,Y
1512629895.5,286047011.7,P
1512629915.4,286047011.1,N
1512629935.2,286047012.6,N
1512629955.0,286047014.6,Y
1512629955.9,286047014.6,P
1512629975.8,286047009.4,P
1512629995.6,286047009.6,P
